Wind_Speed
9 8 6 5 4 4 5 4 3 4 7 10 11 12 14 15 15 16 16 15 16 17 18 19 19 20 21 22 23 24 24 25 25 25 25 25 26 26 27 27 27 28 28 29 29 30 30 30 31 31 31 31 30 30 30 30 30 31 31 32 33 33 34 34 35 36 37 37 37 36 36 35 35 35 35 35 34 34 33 33 33 33 32 32 32
12 10 8 6 5 4 4 5 6 4 2 5 8 10 12 13 13 14 14 15 15 15 16 17 18 18 18 19 20 21 22 22 23 23 24 24 24 25 25 26 26 27 27 27 28 28 28 29 29 29 29 29 29 29 29 30 30 30 31 32 33 33 33 34 34 34 35 35 35 34 34 33 33 33 33 32 31 31 30 30 30 30 29 29 29
13 11 9 7 6 5 4 4 5 7 5 1 3 7 9 10 11 11 12 13 14 14 14 15 16 16 16 17 18 18 19 20 20 21 22 22 22 23 23 24 25 25 25 25 25 26 26 26 26 27 27 27 27 27 28 28 28 29 29 30 31 33 33 33 33 32 32 32 32 32 31 31 30 30 29 28 27 27 26 26 25 25 25 25 25
14 12 10 8 7 7 6 5 4 5 7 6 3 1 4 7 8 9 9 11 12 12 11 12 13 15 15 15 16 17 17 17 18 19 20 20 21 21 21 21 22 22 22 22 22 23 23 23 24 24 24 25 25 26 26 26 27 27 28 29 31 32 32 32 32 31 31 30 29 29 28 27 26 26 25 24 23 22 21 21 21 21 21 21 22
15 14 12 10 8 8 7 7 6 5 5 7 7 5 3 1 4 5 6 8 10 11 11 10 10 12 13 14 14 15 16 16 17 17 18 18 19 19 19 19 19 19 19 19 19 19 20 20 21 21 22 23 23 23 24 25 25 26 26 27 29 30 30 30 30 30 29 28 27 26 24 24 23 22 21 20 19 17 16 16 16 16 16 17 18
18 17 15 12 10 9 9 10 9 8 6 7 8 8 7 6 2 2 4 5 6 8 10 10 10 10 11 12 12 13 14 15 16 16 17 17 17 17 17 16 16 16 16 16 16 16 16 17 18 19 20 20 21 21 22 22 23 24 24 25 26 27 27 28 28 28 27 26 25 23 21 20 20 19 17 16 15 14 13 13 12 12 13 14 15
22 21 19 16 14 12 11 12 12 11 10 10 9 9 9 8 7 5 5 6 5 5 6 8 9 9 10 10 10 11 12 13 14 15 15 16 16 15 15 14 14 14 13 13 13 13 12 13 15 16 17 18 19 19 20 21 21 21 22 22 23 24 25 25 25 25 24 24 23 21 18 17 15 14 13 12 11 11 11 11 10 10 11 12 13
26 25 24 22 20 18 16 15 14 15 14 12 10 10 9 10 11 10 8 7 8 7 5 5 7 8 8 8 8 9 10 11 12 13 13 13 14 14 14 13 12 11 11 11 10 10 9 9 10 12 14 16 17 18 19 19 19 19 20 20 21 22 22 23 22 22 21 20 19 17 15 14 12 11 9 8 7 7 8 8 9 9 10 11 12
30 28 28 27 25 23 21 20 18 17 16 14 11 11 12 13 14 13 11 10 10 10 10 6 3 5 6 6 6 6 6 7 9 10 10 11 11 12 12 12 11 10 9 8 7 7 7 6 6 7 10 12 14 16 17 18 18 18 18 19 20 20 20 19 18 17 16 15 14 12 11 9 8 6 4 3 3 3 5 5 7 8 9 10 11
32 31 32 32 31 29 27 25 23 20 18 16 14 15 15 16 16 16 16 15 14 13 14 12 7 2 3 4 4 5 4 4 4 6 7 8 9 10 10 11 11 10 8 7 5 5 4 4 2 2 4 7 10 13 15 17 17 17 17 17 18 18 17 15 15 14 12 10 8 7 6 5 3 2 1 2 3 4 6 6 6 7 8 9 10
37 35 35 35 35 34 34 32 28 24 22 20 18 19 19 18 16 17 19 20 19 16 16 15 11 8 6 3 4 4 4 4 3 2 3 5 6 7 8 9 9 9 8 7 5 3 2 2 3 2 2 3 5 8 10 13 14 16 16 16 17 16 15 13 13 12 10 8 6 5 5 4 4 4 5 5 7 8 8 9 9 10 10 10 11
40 39 37 37 37 37 37 36 32 29 27 25 21 21 22 21 19 19 20 21 21 19 17 15 12 11 11 7 4 3 4 6 6 5 3 2 3 4 6 6 7 7 7 6 5 4 2 2 3 5 5 6 6 6 7 9 11 12 14 15 15 15 14 13 12 12 11 9 8 7 7 7 7 8 8 9 10 11 12 13 13 14 14 14 15
44 43 42 41 40 39 38 38 35 32 31 29 25 23 23 24 24 23 22 22 21 20 17 15 13 13 13 10 7 5 5 7 8 7 6 6 5 4 4 4 4 4 5 5 5 5 4 3 4 6 7 9 9 10 10 10 10 11 11 12 13 14 14 14 14 14 13 12 11 11 10 10 10 11 11 12 13 14 15 16 16 17 18 19 19
47 47 46 44 43 42 41 39 38 36 34 32 29 27 26 26 26 26 25 24 23 22 20 17 15 15 15 13 11 10 9 9 11 10 10 9 9 8 7 6 4 4 4 3 4 5 6 6 5 7 9 10 12 13 14 14 13 13 13 13 13 13 14 15 16 16 16 15 14 14 14 14 14 14 14 15 16 17 17 18 19 19 20 22 23
50 50 49 47 45 45 43 42 42 41 39 36 33 30 29 28 28 29 28 27 26 25 23 20 19 18 17 16 16 14 12 12 14 15 14 13 13 12 11 10 9 8 7 6 5 5 7 8 9 9 10 11 13 15 16 17 16 16 16 16 16 16 16 17 18 19 18 17 17 17 17 17 17 18 18 18 19 20 20 21 22 22 22 24 26
52 51 50 50 49 49 48 47 47 46 44 42 38 35 33 31 31 32 31 28 28 28 27 25 24 23 21 21 20 18 16 15 16 18 17 16 15 15 14 13 12 12 11 10 8 8 8 9 10 11 12 13 15 16 17 17 17 18 18 19 19 19 20 22 24 23 21 20 21 21 21 21 22 22 23 23 24 24 24 25 27 27 26 27 28
56 53 51 52 52 52 52 51 50 48 47 45 42 40 37 34 32 33 33 31 30 30 30 29 29 28 27 26 25 23 21 19 20 21 20 18 17 18 18 17 16 14 14 13 12 11 11 11 12 13 13 14 16 18 19 19 19 19 19 20 20 20 20 23 26 26 25 25 25 25 26 26 27 27 27 28 29 30 30 30 30 31 30 29 30
62 60 57 55 55 54 53 52 51 50 50 48 44 42 41 37 34 34 36 35 34 33 33 33 33 33 31 30 29 29 27 25 23 23 24 23 22 21 21 21 20 18 16 15 14 14 14 14 15 15 15 16 17 19 21 23 23 22 22 21 21 20 20 23 25 26 25 26 26 27 28 28 29 29 29 29 31 32 33 33 33 33 31 30 29
65 65 63 61 60 59 57 55 54 54 54 53 50 48 46 41 36 36 39 39 38 37 38 37 37 35 33 33 33 33 32 29 27 26 26 27 27 25 25 25 26 24 21 17 15 14 14 15 17 18 19 20 21 22 24 25 25 25 25 24 23 21 20 22 24 25 26 26 26 27 27 28 28 29 29 30 30 32 33 34 33 33 32 30 29
68 67 67 66 65 64 63 61 59 59 59 57 55 53 51 47 40 38 42 43 42 42 42 41 40 38 35 35 37 38 35 32 31 30 29 29 30 30 29 29 30 30 27 21 17 15 14 15 17 19 20 21 23 24 25 26 27 27 27 27 26 24 23 23 23 24 25 26 26 26 26 26 26 27 27 28 30 31 33 34 34 33 33 33 31
73 71 70 70 69 68 67 66 65 64 63 61 59 56 55 52 46 43 45 47 47 47 46 45 44 43 40 40 42 42 40 37 35 34 34 33 33 34 33 33 34 35 34 28 22 18 17 18 21 23 23 24 25 26 26 28 28 28 28 29 28 28 26 26 25 26 27 28 28 28 27 26 25 25 25 26 28 30 32 34 34 34 34 35 34
73 74 74 74 73 72 71 70 70 69 67 66 64 61 58 55 50 49 51 52 52 52 50 48 47 46 45 45 44 45 45 43 39 38 38 38 37 38 37 37 38 39 39 35 28 23 21 22 25 27 28 28 28 29 28 29 30 30 30 29 29 29 29 28 28 28 29 31 33 33 32 30 28 27 27 26 27 29 31 32 33 34 34 35 35
74 74 76 77 77 76 74 73 74 74 72 71 69 65 61 58 54 53 55 57 58 57 55 53 51 49 49 48 48 48 49 48 45 43 42 41 42 42 42 42 42 42 42 40 33 28 28 29 31 32 33 33 34 34 33 33 32 32 32 32 32 32 33 34 34 35 36 37 37 38 37 35 34 32 31 29 29 29 30 31 32 33 34 34 35
79 77 77 79 80 79 77 76 77 77 76 74 72 69 64 60 59 59 60 61 63 63 62 58 55 53 51 51 52 52 53 53 50 48 46 46 46 47 47 46 46 45 45 44 40 39 40 41 41 41 40 40 40 40 39 39 38 36 35 35 35 36 38 40 41 42 42 41 41 41 40 39 38 37 35 33 31 31 30 31 31 33 34 35 36
87 83 81 81 82 82 80 79 80 80 79 77 76 73 68 64 62 63 64 66 67 68 67 65 62 58 56 56 56 57 58 57 55 53 52 51 51 51 51 51 51 51 51 51 51 51 51 50 50 49 49 49 48 46 45 45 44 43 42 40 40 40 42 44 46 47 47 46 45 44 43 42 42 41 39 36 33 33 33 33 33 34 35 36 37
93 90 87 85 85 85 85 83 82 82 82 81 81 79 75 71 68 68 69 70 71 71 71 70 68 65 63 62 61 62 63 63 62 60 59 59 58 58 58 59 59 59 59 60 60 59 58 58 58 58 58 58 57 55 52 50 49 49 48 48 48 49 50 52 53 53 53 52 51 48 46 44 43 42 41 38 35 35 36 37 37 37 36 37 39
99 96 93 91 90 89 89 88 86 85 84 84 84 84 82 80 78 77 76 76 76 77 77 76 75 73 71 70 69 68 68 69 69 67 66 65 65 65 66 66 67 67 67 67 67 66 65 65 65 65 65 65 64 62 60 58 55 54 53 53 54 55 56 58 60 59 59 58 57 55 52 50 47 45 43 42 41 42 43 44 43 41 39 39 40
107 104 101 98 97 95 94 93 91 89 87 87 87 88 88 87 85 85 84 84 84 83 83 82 82 81 80 79 77 75 75 75 76 75 74 73 72 72 72 73 73 74 74 74 74 73 72 71 71 71 72 72 71 70 67 65 63 61 59 58 58 59 60 61 63 64 64 64 64 62 60 58 56 53 51 49 49 49 50 51 50 47 43 42 42
114 112 109 106 105 103 102 100 98 96 94 92 92 92 92 92 92 91 90 89 89 88 88 87 87 86 86 85 85 84 82 82 81 82 82 82 81 81 80 79 78 79 79 80 80 79 79 79 78 79 79 79 78 76 74 71 69 67 65 64 63 63 63 63 64 66 67 68 68 68 67 65 64 62 60 59 59 58 58 58 58 55 50 46 45
121 119 117 115 113 111 110 109 107 106 104 103 102 102 101 100 100 98 97 95 94 93 93 92 92 91 90 90 90 90 89 89 88 88 88 88 88 88 87 86 85 85 86 86 86 86 86 86 85 85 85 84 83 82 80 78 76 73 71 69 68 67 67 67 67 67 68 70 70 71 71 70 69 68 66 65 65 64 63 63 63 61 58 53 51
124 124 123 122 120 119 117 116 116 115 114 113 112 111 111 110 109 109 107 106 104 101 99 98 97 96 95 94 94 94 94 94 94 94 93 94 94 94 94 93 92 92 92 92 92 92 92 92 91 91 90 89 88 87 86 85 83 81 78 75 73 72 71 70 70 70 71 72 73 73 73 73 72 72 70 69 68 68 67 65 65 64 62 60 57
125 126 126 126 125 124 124 123 122 121 120 120 119 118 118 117 117 116 115 114 112 109 107 105 104 102 100 99 98 98 98 99 99 99 98 98 98 99 99 99 98 98 98 98 98 98 97 97 97 96 95 94 93 92 91 91 90 89 86 84 81 79 77 76 75 75 74 74 75 75 76 75 75 74 73 73 72 71 70 69 68 66 65 64 62
124 125 126 127 128 128 128 127 126 125 124 123 122 121 120 119 118 117 117 116 114 113 112 111 110 109 107 106 104 103 103 102 102 103 103 103 103 103 103 103 103 103 103 103 102 102 102 102 101 101 100 99 98 97 97 96 96 95 94 92 89 87 86 84 82 80 79 78 78 78 78 78 77 77 76 76 75 74 74 73 72 70 69 68 67
124 124 125 126 127 128 129 129 129 128 127 126 125 124 122 121 120 119 118 117 116 115 114 114 114 113 113 113 112 111 109 108 108 107 107 107 107 108 108 108 108 108 108 108 107 107 107 106 106 106 105 104 104 103 102 102 101 100 99 98 96 94 93 91 89 87 84 82 81 81 80 80 80 79 79 79 78 77 77 76 75 74 73 72 71
125 125 125 125 125 126 126 127 127 127 127 127 126 125 125 124 123 121 120 119 118 117 117 116 116 115 116 116 116 116 116 116 115 114 114 113 113 113 113 113 113 113 113 112 112 111 111 111 110 110 110 109 109 108 108 107 106 105 104 103 102 100 98 97 95 92 90 87 85 84 83 83 83 82 82 82 81 81 80 79 79 78 77 76 75
128 127 127 126 126 126 125 125 125 125 125 125 124 124 123 123 122 122 121 120 120 119 118 118 117 117 117 117 117 118 118 118 118 117 117 117 117 117 117 117 117 118 117 117 117 116 115 115 115 114 114 113 113 112 112 111 110 110 109 107 106 104 102 101 99 97 95 92 90 89 88 87 86 86 86 85 85 84 83 83 82 82 81 80 79
130 130 129 129 128 128 127 126 126 125 125 124 123 123 122 122 121 121 120 120 120 119 119 118 117 117 117 117 117 118 118 119 119 119 118 118 119 119 119 120 120 120 121 121 121 121 120 120 119 119 119 118 117 116 115 114 113 112 111 110 109 108 106 104 102 101 99 97 96 94 92 91 90 90 89 89 88 87 87 86 85 85 84 83 82
131 131 131 130 130 130 129 129 128 127 127 126 125 124 123 123 122 121 121 120 120 120 120 119 118 118 117 117 117 117 117 118 118 119 119 119 119 120 120 120 121 121 121 122 122 122 122 122 122 122 122 122 121 120 119 117 115 114 113 112 111 110 109 108 106 105 103 102 100 99 97 96 94 93 92 92 91 90 89 89 88 87 87 87 86
131 131 131 131 131 131 131 130 130 129 129 128 128 127 126 125 125 124 123 122 122 122 121 121 120 120 119 118 117 117 118 118 118 119 119 119 119 120 120 120 121 121 122 122 122 122 122 123 122 122 123 123 122 122 122 121 119 117 116 114 113 112 111 110 109 107 106 105 103 101 100 99 97 96 95 94 93 92 92 91 90 89 89 89 88
132 132 132 132 132 132 132 131 131 131 131 130 130 130 129 129 128 127 127 126 126 125 124 124 123 122 122 121 120 120 120 120 120 120 120 120 120 120 120 121 121 121 121 122 122 122 122 122 122 122 122 122 122 122 122 121 120 119 118 117 115 114 112 111 110 108 107 106 105 103 102 100 99 98 97 96 95 94 93 93 92 92 91 90 90
131 131 131 132 132 132 132 132 132 132 132 132 132 132 131 131 130 130 130 130 129 129 128 128 127 126 125 125 124 124 123 123 123 123 123 122 122 122 122 122 122 123 123 123 123 123 123 123 123 122 122 122 122 121 121 120 120 119 118 117 116 115 114 112 111 110 108 107 105 104 103 102 101 99 98 98 97 96 95 94 94 94 93 92 92
130 130 130 131 131 131 132 132 132 132 132 132 132 132 132 132 132 132 132 131 131 131 131 130 130 130 129 129 129 128 128 127 127 126 126 126 126 126 125 125 125 124 125 125 125 124 124 124 124 124 124 123 123 123 122 121 121 120 119 118 118 117 116 114 113 112 110 108 107 106 105 104 102 101 100 100 99 98 97 96 95 95 95 94 94
129 129 130 130 130 131 131 131 132 132 132 133 133 133 132 132 132 132 133 133 133 133 132 132 132 132 132 132 132 132 131 131 130 130 130 130 130 129 129 129 128 128 128 128 127 127 127 127 127 126 126 126 126 125 125 124 123 123 122 121 120 120 119 118 116 115 114 112 111 109 108 106 105 104 103 102 102 101 99 99 98 97 97 96 95
128 129 129 129 129 130 130 131 131 132 132 132 133 133 133 133 133 133 133 133 133 134 134 134 134 134 134 134 134 134 134 134 134 133 133 133 133 133 133 133 132 132 132 132 132 131 131 131 130 130 130 129 129 129 128 128 128 127 126 125 124 123 122 121 120 119 118 117 115 114 113 111 110 108 107 106 105 104 102 102 101 100 99 99 98
126 127 128 128 128 128 129 129 130 130 131 131 132 132 132 132 132 133 133 133 133 134 134 134 134 135 135 135 136 136 136 136 136 136 136 136 136 136 136 136 136 136 136 136 135 135 135 135 134 134 134 133 133 133 133 132 132 131 131 130 129 128 127 126 125 124 122 121 120 119 118 116 115 114 112 110 109 108 106 105 104 103 102 101 101
125 125 126 127 127 127 127 128 128 129 129 130 130 131 131 131 131 132 132 132 133 133 133 134 134 134 135 135 136 136 137 137 137 137 138 138 137 137 137 137 137 138 138 138 138 138 138 138 138 137 137 137 137 136 136 136 136 136 135 135 134 133 132 131 130 129 128 127 125 124 122 121 120 119 118 117 115 113 111 110 108 107 106 105 104
124 125 126 126 126 127 127 127 127 128 128 128 129 129 129 129 130 130 130 131 131 131 132 132 133 133 134 134 135 135 136 137 137 138 138 138 138 138 138 138 139 139 139 139 139 139 139 139 139 139 139 139 139 139 139 139 139 139 139 138 138 138 137 136 135 134 133 132 130 129 128 127 125 124 124 123 121 120 118 116 114 112 111 109 108
126 126 126 127 127 127 127 127 127 127 128 128 128 128 129 129 129 129 129 129 130 130 130 130 131 131 131 132 132 133 134 134 135 136 136 137 137 138 138 138 138 139 139 139 140 140 140 140 140 140 140 140 140 140 140 140 140 140 140 140 140 140 140 140 139 138 137 136 135 133 132 131 131 130 129 128 127 125 124 122 120 119 117 115 113
125 126 126 127 127 127 127 128 128 128 128 128 129 129 129 129 129 129 129 129 129 129 129 129 130 130 130 130 130 131 131 131 132 132 133 133 134 134 135 135 135 136 136 137 138 138 139 139 140 140 140 140 141 141 141 141 141 141 141 141 141 141 141 140 140 140 139 138 137 136 135 134 134 134 133 132 131 130 128 127 126 125 123 121 119
121 122 124 125 126 127 127 128 128 129 129 129 129 130 130 130 130 130 129 129 129 129 129 129 129 129 129 129 129 130 130 130 130 130 131 131 131 131 132 132 132 132 133 133 134 134 135 135 136 136 137 138 138 139 140 140 141 141 142 142 142 141 141 141 141 140 140 139 138 137 136 136 135 135 135 135 134 134 133 131 130 129 128 127 125
113 115 117 119 121 123 124 125 126 127 128 129 129 129 129 129 130 130 129 129 129 129 129 129 129 129 129 129 129 129 129 129 129 130 130 130 130 130 130 130 130 131 131 131 131 131 131 131 131 132 132 133 134 135 136 137 138 138 139 139 140 140 141 141 141 140 140 139 138 137 137 136 135 135 134 135 135 134 134 134 133 132 131 131 130
Wind_Direction
243 249 264 286 314 354 2 350 16 69 73 70 69 70 68 67 66 66 65 66 70 74 74 72 70 67 63 60 59 57 57 56 55 54 54 55 56 57 58 56 55 54 53 53 53 53 54 56 58 61 63 66 68 71 74 77 80 83 87 90 93 96 100 103 106 109 111 112 112 111 111 109 107 105 102 99 94 91 89 88 86 85 83 81 78
247 251 257 271 286 303 322 325 330 336 53 85 79 77 74 69 67 67 65 61 60 65 71 74 74 72 69 65 61 58 56 55 54 53 52 52 53 55 56 56 55 54 53 53 53 55 57 58 60 63 65 67 70 74 77 82 85 89 93 96 99 102 105 107 109 111 113 114 114 112 111 109 107 105 103 99 94 89 87 85 82 80 77 73 69
250 251 253 255 257 264 270 280 317 329 323 358 86 87 84 78 72 69 70 68 61 57 59 65 70 72 73 72 68 63 59 56 55 54 51 51 51 53 55 56 56 55 54 54 54 56 60 63 65 67 70 72 74 78 82 86 91 95 99 102 105 108 110 112 113 114 115 116 116 114 111 110 108 106 104 100 95 90 85 82 78 74 71 66 62
246 242 241 242 242 247 253 251 272 321 329 316 291 161 100 86 78 71 71 77 74 67 59 57 60 64 67 71 72 70 66 61 58 56 54 52 51 52 53 55 56 56 55 55 57 59 62 67 71 73 77 80 82 85 88 91 96 100 105 109 112 114 116 117 118 119 119 119 117 115 112 109 107 105 103 99 95 90 84 79 75 71 66 61 57
246 242 237 235 235 236 238 239 246 270 306 309 294 264 238 125 88 67 59 70 77 78 77 68 60 58 59 63 68 70 71 68 63 60 58 55 54 53 53 54 55 55 55 56 59 62 66 71 77 81 85 88 91 93 96 98 101 105 109 113 116 119 121 122 123 123 122 119 116 113 110 107 103 99 96 92 87 83 80 76 72 67 63 57 52
244 243 240 238 236 233 232 234 238 244 257 281 291 285 269 250 222 26 15 32 57 72 83 86 79 68 59 57 61 66 69 71 69 65 63 60 57 55 54 53 54 53 53 54 57 63 70 77 83 88 93 97 100 102 104 106 108 111 114 116 119 122 124 126 127 126 124 121 117 112 108 103 100 97 93 85 75 71 72 70 65 59 53 45 40
241 242 242 243 243 240 237 234 239 249 257 260 268 274 268 255 250 275 315 329 349 29 66 87 89 80 69 59 58 63 68 72 72 69 67 64 61 59 57 55 53 52 51 50 51 58 70 82 91 97 101 105 109 112 113 115 117 118 120 122 124 126 128 130 131 131 129 127 124 120 114 107 103 100 96 86 71 61 60 58 51 44 37 30 25
240 240 241 242 243 243 242 240 242 251 255 251 248 253 254 248 245 248 261 285 303 323 357 57 86 84 74 62 53 56 66 73 74 71 69 68 66 63 61 58 56 53 50 47 46 49 60 78 96 105 110 114 117 121 124 125 127 128 129 131 133 133 134 135 136 136 135 134 133 131 126 122 117 111 105 97 77 58 49 44 35 27 21 17 14
241 243 244 242 242 244 244 242 244 245 244 240 238 245 249 246 241 238 237 249 271 291 304 318 44 74 69 58 42 35 46 65 76 75 71 70 71 70 66 62 59 56 52 48 43 39 42 54 84 107 118 125 128 130 133 135 137 137 138 140 142 142 141 140 140 140 140 141 141 142 140 136 132 125 111 90 59 27 16 15 12 7 3 1 359
240 243 245 243 243 246 246 243 242 244 243 241 237 237 240 241 237 233 229 234 244 260 274 280 288 326 28 38 25 3 359 22 62 77 75 69 66 69 71 67 62 57 52 49 43 34 25 21 31 90 127 137 142 143 143 145 146 147 147 149 152 152 151 151 151 149 148 149 151 156 159 161 165 177 269 318 328 328 328 330 335 339 340 340 340
237 238 241 243 242 245 247 243 239 242 249 250 244 238 235 232 229 228 228 228 231 236 246 254 260 268 277 307 353 351 323 310 320 29 67 68 60 57 60 64 64 60 53 47 41 30 7 339 319 291 256 200 175 168 163 161 159 158 159 160 162 165 166 167 168 169 170 174 178 187 199 219 247 266 279 291 300 304 306 308 311 316 320 322 324
239 237 238 240 240 241 245 245 243 245 252 253 248 242 237 231 227 225 227 232 236 239 241 243 247 257 263 270 297 325 302 288 286 294 315 355 33 40 42 45 49 52 48 41 33 21 350 288 276 271 267 262 249 228 208 194 185 179 177 175 175 177 180 184 189 194 199 203 208 215 227 239 253 264 273 282 288 293 297 300 304 308 311 315 319
238 237 237 238 239 240 243 246 246 247 250 251 247 243 239 236 231 228 229 238 245 248 248 246 246 252 256 257 260 261 264 271 274 277 287 296 310 332 355 11 21 27 28 25 14 359 341 297 265 257 255 258 261 257 250 238 225 215 208 202 199 199 201 204 207 209 212 216 222 229 239 247 252 257 265 274 281 286 290 295 299 303 307 310 313
233 234 235 237 239 240 241 244 245 244 244 245 244 242 239 238 236 235 235 241 247 250 250 247 244 246 248 246 245 244 244 250 257 264 273 284 294 302 303 303 312 327 337 343 339 330 326 315 291 269 257 254 253 254 254 254 252 249 246 240 233 228 227 226 224 223 224 229 236 243 247 251 255 259 262 267 274 279 284 289 292 294 299 303 306
230 230 232 234 236 237 238 239 240 240 240 240 240 238 236 235 235 238 239 240 244 248 250 246 245 247 246 242 241 242 240 241 247 251 257 268 279 287 289 288 287 287 293 300 305 310 309 308 304 295 283 273 264 258 254 253 254 256 258 258 256 254 253 251 246 241 239 242 248 253 254 255 258 264 267 269 272 276 280 284 289 291 292 295 299
229 229 229 231 232 232 232 233 234 236 236 236 236 234 232 231 231 234 238 241 244 247 247 245 247 250 249 244 241 241 241 243 247 249 248 254 263 269 274 280 281 280 281 282 287 294 295 294 295 296 295 292 286 281 274 267 261 258 257 256 256 257 259 259 257 255 254 254 256 257 259 261 263 267 271 274 276 279 280 282 287 290 291 292 295
229 228 227 229 230 232 232 232 232 234 234 234 233 230 228 229 230 231 235 239 243 246 246 245 247 250 251 248 243 241 242 243 245 249 250 249 251 253 257 264 272 276 280 281 282 285 286 285 283 284 288 291 292 293 293 289 282 275 269 264 260 259 261 263 263 262 262 260 259 260 261 264 266 269 273 275 277 280 282 283 285 288 290 291 292
229 227 226 227 230 232 234 234 233 233 233 233 233 230 227 229 234 236 235 234 236 241 243 244 245 248 251 252 246 241 240 239 239 244 247 246 246 245 246 252 259 266 273 279 281 282 282 281 278 276 276 278 283 289 293 293 292 288 284 279 274 270 269 269 271 272 271 268 266 266 266 267 269 272 275 277 279 282 284 284 285 286 288 290 290
228 227 226 228 229 230 232 233 233 232 232 234 236 234 231 232 238 242 239 234 231 233 236 238 241 244 249 253 250 243 236 232 233 238 245 247 246 245 245 247 252 257 261 268 275 277 280 280 277 274 272 271 273 278 284 287 289 288 287 286 284 281 278 276 277 278 279 278 277 276 275 276 277 278 280 282 283 285 286 286 287 287 288 289 289
228 227 226 227 228 229 230 231 232 231 232 233 235 235 234 234 237 241 240 236 231 229 229 230 233 237 242 248 250 244 235 230 231 234 240 245 247 247 247 248 251 254 254 258 263 267 273 280 279 276 275 274 274 275 277 280 282 284 284 283 283 283 281 281 282 282 284 285 286 285 285 285 286 286 287 288 288 288 288 288 288 289 290 290 289
229 229 228 227 228 229 230 231 231 230 231 233 235 236 236 235 234 236 237 236 233 231 229 229 230 233 238 244 248 247 239 233 232 234 236 239 244 247 249 250 252 254 254 255 258 262 267 272 274 273 272 273 275 276 275 276 277 279 280 280 281 281 280 279 279 281 283 285 286 287 288 289 290 290 291 292 292 291 291 291 291 291 291 291 291
230 230 230 230 230 230 231 231 232 231 232 235 237 238 236 233 232 233 234 234 233 232 230 231 232 235 238 242 245 247 244 239 235 234 234 237 242 247 250 251 252 253 253 253 254 261 267 268 268 268 268 269 272 274 276 276 275 275 275 276 278 281 282 281 280 279 281 284 285 286 285 285 285 286 288 289 290 290 291 293 294 294 293 293 293
230 231 231 232 231 231 231 232 233 233 233 236 238 237 235 232 231 232 233 234 234 233 233 234 235 237 239 241 242 243 242 241 238 235 234 238 243 247 250 251 251 252 252 249 251 262 272 272 270 270 270 270 270 272 274 275 274 271 270 271 275 278 281 282 283 283 285 286 286 286 285 284 282 281 282 284 286 288 289 291 292 294 294 293 292
231 232 231 231 231 231 231 232 233 234 234 235 236 236 234 231 230 231 233 233 234 235 235 237 237 238 240 242 243 241 239 239 239 237 237 241 244 246 249 250 249 249 249 249 257 269 275 276 275 274 274 273 272 272 273 274 275 272 268 267 270 275 278 281 283 285 286 286 286 285 283 282 282 282 281 281 282 283 285 287 289 291 292 292 291
232 232 232 232 232 231 231 232 233 234 234 234 235 235 234 233 232 233 234 234 235 236 237 238 239 240 241 242 245 244 241 238 238 239 241 244 246 247 249 250 250 249 247 250 260 269 273 275 275 275 274 275 275 274 273 273 274 274 272 269 267 270 274 278 281 283 283 284 286 285 282 280 280 280 279 280 281 283 284 284 283 285 288 289 289
233 233 233 233 232 232 232 233 233 234 233 233 234 234 235 236 237 238 238 237 236 237 238 239 240 241 242 243 245 246 245 242 240 241 244 247 248 249 252 254 254 254 253 255 260 266 270 273 274 274 275 276 276 276 275 273 272 273 273 273 272 272 274 276 278 280 280 281 283 284 282 281 280 279 277 276 279 283 286 286 283 282 282 283 283
235 234 233 233 233 233 233 234 234 234 234 234 234 235 236 238 240 243 244 244 242 240 240 241 242 243 244 245 246 247 247 247 246 245 246 247 249 251 253 255 257 258 258 259 263 266 269 271 272 273 275 276 276 276 276 276 275 274 274 275 276 275 275 275 276 277 278 279 279 279 278 278 280 280 278 275 276 279 282 285 285 283 280 279 278
237 237 237 236 234 234 235 235 235 235 234 235 235 237 238 240 242 244 247 248 248 247 244 244 244 245 246 247 248 249 249 250 250 250 249 249 250 251 253 255 257 258 260 262 264 267 268 269 270 271 273 275 276 276 276 276 276 276 275 276 277 276 276 275 274 275 275 276 277 276 275 275 276 277 278 277 277 277 278 280 283 283 281 277 275
238 238 238 238 238 237 237 237 236 236 236 237 237 238 239 241 243 245 247 248 250 250 249 248 247 247 247 248 249 250 250 251 252 252 252 252 252 253 254 255 256 257 259 261 264 265 267 268 269 270 272 273 274 275 275 275 276 276 276 276 277 277 276 275 273 273 273 274 274 274 274 274 274 274 275 276 277 277 277 278 280 282 281 278 275
240 240 239 239 239 240 240 240 240 240 241 241 242 242 243 244 245 247 248 249 250 251 251 251 250 249 248 249 249 250 251 252 253 253 254 254 255 255 256 256 256 257 258 260 263 264 266 267 269 270 271 272 273 274 274 275 275 276 276 276 276 276 276 275 274 273 272 272 272 273 273 274 274 274 274 275 275 276 276 276 278 279 280 279 277
242 242 242 242 241 241 242 242 243 244 244 245 246 246 247 248 249 250 251 251 251 251 251 251 251 251 250 250 250 250 251 252 253 254 254 255 256 257 257 258 258 259 260 261 263 265 266 268 269 270 271 272 273 273 274 274 275 275 275 275 275 275 275 275 274 273 272 272 272 272 272 273 274 274 274 274 275 275 275 275 276 277 278 278 278
242 243 243 244 244 244 244 245 245 246 247 247 248 249 250 250 251 252 252 253 253 252 252 251 251 251 251 251 251 250 251 251 252 253 254 255 256 257 258 259 259 260 261 263 264 266 267 268 269 270 271 272 272 272 273 273 274 275 275 275 276 276 276 276 275 274 272 271 271 271 271 272 273 273 274 274 275 275 275 275 275 275 275 276 276
242 243 244 244 245 245 246 246 247 248 249 249 250 251 251 252 252 253 253 254 254 254 253 252 252 251 251 251 252 252 252 252 252 253 254 255 256 257 258 259 260 261 262 263 265 266 267 268 269 270 271 271 271 272 272 272 273 274 275 275 276 276 276 276 276 275 273 272 271 270 270 270 271 272 273 273 274 275 275 275 275 274 274 274 275
242 243 244 244 245 245 246 247 247 248 249 250 250 251 252 252 253 253 254 254 254 254 254 254 253 253 253 253 253 253 253 253 254 254 254 254 255 256 257 258 260 261 262 263 264 265 267 268 269 269 270 271 271 271 272 272 272 273 274 275 276 276 276 276 276 275 273 272 271 270 269 269 269 270 271 272 272 273 273 274 274 273 273 273 273
243 244 244 244 245 246 246 247 248 248 249 250 250 251 252 252 252 253 253 254 254 254 254 254 254 254 254 254 254 255 255 255 255 256 256 255 255 256 256 257 258 259 261 262 263 264 265 266 267 268 269 270 270 271 272 272 273 273 274 275 275 275 275 275 275 274 273 272 271 270 269 268 268 269 269 270 271 271 272 272 272 272 272 272 272
245 245 245 245 246 246 246 247 248 248 249 250 251 251 252 252 252 253 253 253 254 254 254 254 254 255 255 255 255 256 256 256 257 257 257 257 256 256 257 257 258 258 259 260 261 262 263 265 266 267 268 269 269 270 271 271 272 273 273 274 274 274 274 274 274 274 273 272 271 270 269 268 268 268 268 269 269 270 270 270 271 271 271 271 271
246 246 246 247 247 247 247 248 248 249 249 250 250 251 252 252 253 253 254 254 254 254 254 254 254 254 255 255 256 256 256 257 257 258 258 258 257 257 258 258 259 259 260 260 261 261 262 263 264 265 266 267 268 269 270 270 271 272 272 273 273 273 273 273 273 273 273 272 272 271 270 269 268 268 268 268 268 268 268 268 269 269 270 270 270
246 247 247 247 248 248 248 249 249 250 250 250 251 251 252 252 252 253 253 254 254 255 255 255 255 255 255 255 255 256 256 257 257 258 258 258 258 258 259 259 259 260 260 261 262 262 263 263 264 264 265 265 266 267 268 269 270 270 271 272 272 272 272 272 272 272 272 272 272 271 271 270 269 268 268 267 267 267 267 266 267 267 268 268 268
246 246 247 248 248 249 249 250 250 250 251 251 252 252 252 252 253 253 253 254 254 254 255 255 256 256 256 256 256 256 256 257 257 257 258 258 258 259 259 259 260 260 260 261 262 262 263 264 264 265 265 266 266 266 267 267 268 268 269 270 270 271 271 271 272 272 271 271 271 271 271 270 269 269 268 268 267 267 266 266 266 266 266 266 267
247 247 247 248 248 249 249 250 250 251 251 252 252 253 253 253 253 254 254 254 254 254 255 255 255 256 256 256 256 256 256 257 257 257 258 258 258 259 259 260 260 260 261 261 261 262 262 263 264 264 265 265 266 266 267 267 267 268 268 268 269 269 269 270 270 270 270 270 270 270 270 270 270 269 269 268 267 267 266 266 266 266 265 265 265
248 248 248 248 249 249 249 250 250 251 251 252 252 253 253 254 254 254 255 255 255 255 255 256 256 256 256 256 256 256 256 257 257 257 258 258 258 259 259 260 260 261 261 262 262 262 262 263 263 264 264 265 265 266 266 267 267 267 268 268 268 268 268 268 269 269 269 269 269 269 269 269 269 269 269 269 268 267 267 266 266 266 265 265 265
248 249 249 249 250 250 250 250 251 251 251 252 252 253 253 254 254 255 255 255 256 256 256 256 257 257 257 257 257 257 257 257 257 257 258 258 258 259 259 259 259 260 261 261 262 262 262 263 263 264 264 265 265 265 266 266 266 267 267 267 268 268 268 268 268 268 268 268 268 268 268 268 268 268 268 268 268 268 267 267 267 266 266 265 265
249 249 250 250 250 251 251 251 252 252 252 252 252 253 253 253 254 254 255 255 256 256 256 257 257 257 257 258 258 258 258 258 258 258 258 258 258 259 259 259 259 260 260 260 261 261 262 262 263 263 264 264 264 265 265 266 266 266 266 267 267 267 268 268 268 268 268 268 268 268 267 267 267 267 267 266 267 267 267 267 267 266 266 266 265
250 250 251 251 251 251 252 252 252 253 253 253 253 253 253 254 254 254 255 255 255 256 256 257 257 258 258 258 259 259 259 259 259 259 259 259 259 259 259 260 260 260 260 260 261 261 261 262 262 262 263 263 264 264 265 265 265 265 266 266 266 266 266 267 267 267 267 268 268 268 268 267 267 266 266 266 265 265 265 265 265 265 265 265 265
251 252 252 252 252 252 252 253 253 253 254 254 254 255 255 255 255 255 255 255 256 256 256 257 257 258 258 258 259 259 259 260 260 260 260 260 260 260 260 260 261 261 261 261 261 261 261 262 262 262 262 263 263 264 264 264 265 265 265 265 265 265 266 266 266 266 266 266 266 266 267 267 267 267 267 266 266 265 265 264 264 264 264 264 264
252 252 253 253 253 253 253 253 254 254 254 255 255 255 256 256 256 256 256 257 257 257 257 257 257 258 258 258 259 259 259 260 260 260 261 261 261 261 261 261 261 262 262 262 262 262 262 262 262 263 263 263 263 263 263 264 264 264 265 265 265 265 265 265 265 265 265 265 265 265 265 265 266 266 266 266 266 266 265 265 264 263 263 262 262
251 252 253 253 253 254 254 254 254 255 255 255 255 256 256 256 257 257 257 257 258 258 258 258 258 258 258 259 259 259 259 260 260 261 261 261 261 261 262 262 262 262 262 263 263 263 263 263 263 263 263 263 263 263 264 264 264 264 264 264 265 265 265 265 265 265 265 265 265 265 265 265 265 265 265 265 265 265 265 265 265 264 264 263 262
251 251 252 252 253 254 254 255 255 255 256 256 256 257 257 257 257 258 258 258 258 259 259 259 259 259 259 260 260 260 260 260 261 261 261 261 262 262 262 262 262 262 263 263 263 263 263 263 263 264 264 264 264 264 264 264 264 264 264 264 264 264 264 264 264 264 264 264 264 264 265 265 265 265 265 264 264 264 264 265 264 264 264 263 263
251 251 252 252 253 254 254 255 255 256 256 257 257 257 258 258 258 259 259 259 259 260 260 260 260 261 261 261 261 261 261 262 262 262 262 262 262 263 263 263 263 263 263 263 263 263 263 263 263 264 264 264 264 264 264 264 264 264 264 264 264 264 264 264 264 264 264 264 264 264 264 264 264 264 264 264 264 264 264 264 264 264 264 263 263
251 251 252 252 253 254 254 255 255 256 256 257 257 258 258 258 259 259 260 260 260 260 261 261 261 262 262 262 263 263 263 263 263 263 264 264 264 264 264 264 264 264 264 264 264 264 264 264 264 264 264 264 264 264 264 264 264 264 264 264 264 264 264 264 264 264 264 264 264 264 264 263 263 263 263 263 263 264 264 263 263 263 263 263 263
250 251 251 252 252 253 254 254 255 255 256 257 257 258 258 259 259 259 260 260 261 261 261 261 262 262 262 262 263 263 263 264 264 264 264 265 265 265 265 265 265 265 265 265 265 265 265 265 265 265 265 264 264 264 264 264 264 263 263 263 263 263 263 263 264 264 264 264 264 264 264 264 264 264 263 263 263 263 263 263 263 262 262 262 262
Height
11028 11029 11030 11030 11031 11031 11031 11031 11032 11032 11032 11032 11033 11033 11032 11032 11032 11032 11032 11031 11030 11030 11029 11029 11028 11028 11028 11027 11027 11026 11026 11025 11024 11024 11024 11023 11022 11022 11021 11020 11020 11019 11019 11018 11017 11016 11016 11015 11015 11014 11013 11013 11013 11012 11012 11012 11011 11011 11011 11011 11011 11012 11012 11013 11014 11014 11015 11016 11016 11017 11017 11017 11017 11017 11017 11017 11017 11017 11017 11016 11016 11015 11014 11013 11013
11027 11028 11029 11029 11030 11030 11031 11031 11031 11032 11033 11033 11033 11033 11033 11033 11033 11033 11033 11032 11031 11031 11030 11029 11029 11028 11028 11028 11028 11028 11027 11027 11026 11026 11025 11025 11024 11024 11023 11023 11022 11022 11021 11021 11020 11020 11019 11019 11018 11018 11017 11017 11016 11016 11016 11016 11015 11015 11015 11015 11015 11016 11016 11017 11018 11019 11020 11020 11021 11021 11021 11021 11021 11021 11020 11020 11020 11020 11020 11019 11019 11018 11017 11016 11015
11026 11027 11027 11028 11028 11029 11030 11030 11031 11031 11032 11033 11033 11033 11033 11033 11033 11033 11033 11032 11032 11032 11031 11031 11030 11029 11029 11029 11029 11029 11029 11028 11028 11028 11028 11027 11026 11026 11025 11025 11024 11024 11024 11024 11023 11023 11022 11022 11022 11021 11021 11020 11020 11020 11020 11019 11019 11019 11019 11019 11019 11019 11020 11020 11021 11022 11023 11023 11024 11024 11024 11024 11024 11024 11023 11023 11023 11023 11022 11022 11021 11021 11020 11019 11018
11025 11025 11026 11026 11027 11028 11029 11029 11030 11030 11031 11032 11033 11033 11033 11033 11033 11033 11033 11032 11032 11032 11032 11032 11031 11031 11030 11030 11030 11030 11029 11029 11030 11029 11029 11029 11029 11028 11028 11027 11027 11026 11026 11026 11026 11026 11026 11025 11025 11025 11024 11024 11023 11023 11023 11023 11023 11023 11023 11023 11023 11023 11023 11023 11024 11024 11025 11026 11026 11027 11027 11027 11027 11027 11026 11026 11026 11025 11025 11024 11024 11023 11022 11022 11021
11023 11024 11025 11025 11026 11027 11027 11028 11028 11029 11029 11030 11031 11032 11033 11032 11032 11032 11032 11032 11031 11031 11031 11032 11032 11032 11031 11031 11031 11031 11030 11030 11030 11030 11031 11031 11031 11030 11030 11029 11029 11029 11029 11028 11028 11028 11028 11028 11028 11028 11028 11027 11027 11026 11026 11026 11025 11025 11025 11026 11026 11026 11026 11026 11027 11027 11028 11028 11029 11029 11029 11029 11029 11029 11029 11029 11028 11027 11027 11026 11026 11025 11024 11024 11023
11021 11022 11023 11024 11025 11025 11026 11026 11027 11027 11027 11027 11028 11030 11032 11032 11032 11032 11032 11032 11031 11031 11031 11031 11031 11032 11032 11032 11032 11032 11032 11031 11031 11031 11031 11032 11032 11032 11032 11031 11031 11031 11031 11031 11031 11031 11031 11030 11030 11030 11030 11030 11030 11029 11029 11029 11028 11028 11028 11028 11028 11028 11029 11029 11029 11030 11030 11031 11031 11032 11032 11032 11032 11031 11031 11030 11030 11029 11028 11028 11027 11027 11026 11026 11025
11018 11020 11021 11022 11023 11024 11024 11025 11025 11026 11026 11027 11027 11028 11029 11030 11031 11031 11031 11031 11031 11031 11031 11031 11031 11031 11032 11033 11033 11033 11033 11033 11032 11032 11032 11032 11032 11033 11033 11033 11033 11033 11033 11033 11034 11033 11033 11033 11033 11032 11032 11032 11032 11032 11031 11031 11031 11031 11030 11030 11030 11031 11031 11031 11032 11032 11033 11033 11033 11033 11033 11033 11033 11032 11032 11032 11031 11031 11030 11030 11029 11028 11028 11027 11027
11015 11017 11018 11019 11020 11021 11022 11023 11024 11025 11025 11026 11026 11026 11027 11028 11029 11029 11030 11030 11031 11031 11031 11031 11031 11031 11031 11032 11033 11034 11034 11034 11033 11033 11033 11033 11033 11033 11033 11034 11034 11034 11034 11035 11035 11036 11036 11036 11035 11035 11034 11034 11033 11033 11033 11033 11033 11033 11033 11033 11033 11033 11033 11033 11033 11034 11034 11034 11034 11034 11034 11034 11033 11033 11033 11032 11032 11032 11032 11031 11030 11030 11029 11029 11028
11011 11013 11015 11016 11017 11017 11019 11020 11021 11023 11024 11024 11025 11025 11025 11026 11026 11027 11028 11029 11030 11030 11031 11031 11031 11030 11030 11031 11033 11034 11034 11034 11034 11034 11034 11033 11033 11033 11033 11033 11034 11034 11035 11035 11036 11037 11038 11038 11038 11037 11036 11036 11035 11034 11034 11034 11034 11034 11034 11034 11035 11035 11035 11035 11035 11035 11035 11035 11035 11035 11034 11034 11034 11034 11034 11033 11033 11033 11032 11032 11032 11031 11030 11030 11029
11008 11009 11010 11011 11013 11013 11015 11017 11018 11019 11021 11022 11022 11023 11023 11024 11025 11026 11026 11027 11028 11029 11030 11031 11031 11031 11030 11030 11031 11033 11034 11034 11034 11034 11034 11034 11034 11033 11033 11033 11033 11034 11034 11035 11036 11037 11038 11039 11039 11039 11039 11038 11037 11036 11035 11035 11035 11035 11035 11035 11035 11035 11035 11035 11035 11035 11035 11035 11035 11035 11035 11035 11035 11034 11034 11034 11033 11033 11033 11032 11032 11031 11031 11030 11029
11002 11004 11005 11007 11009 11010 11010 11012 11015 11017 11018 11019 11020 11020 11020 11021 11022 11023 11024 11025 11026 11027 11028 11029 11030 11030 11030 11030 11031 11032 11033 11034 11034 11034 11034 11034 11034 11034 11034 11033 11033 11033 11034 11034 11035 11036 11037 11039 11039 11040 11040 11040 11039 11038 11037 11036 11036 11035 11035 11035 11035 11035 11035 11035 11035 11035 11035 11036 11036 11036 11036 11036 11035 11035 11035 11034 11034 11033 11033 11032 11032 11031 11031 11030 11030
10997 11000 11001 11003 11004 11006 11007 11008 11011 11014 11015 11016 11017 11017 11018 11019 11019 11020 11022 11023 11024 11025 11027 11028 11028 11029 11030 11030 11030 11031 11032 11033 11033 11034 11034 11034 11034 11035 11035 11034 11034 11033 11033 11033 11034 11035 11036 11038 11039 11039 11040 11040 11040 11039 11038 11038 11037 11036 11036 11035 11035 11035 11035 11035 11035 11035 11035 11035 11035 11035 11035 11035 11035 11035 11034 11034 11033 11033 11032 11032 11031 11031 11030 11030 11029
10992 10994 10996 10998 10999 11001 11003 11005 11007 11010 11011 11013 11014 11014 11015 11015 11016 11017 11019 11020 11022 11023 11025 11026 11026 11027 11028 11029 11030 11030 11030 11031 11031 11032 11033 11033 11033 11034 11034 11035 11034 11034 11033 11033 11033 11034 11035 11036 11037 11038 11039 11039 11039 11039 11039 11038 11038 11037 11036 11036 11035 11035 11035 11035 11035 11035 11035 11035 11035 11035 11035 11034 11034 11034 11034 11033 11033 11032 11032 11031 11031 11030 11029 11029 11028
10984 10987 10990 10993 10995 10997 10999 11001 11003 11005 11007 11009 11010 11011 11011 11012 11013 11014 11016 11017 11019 11020 11022 11023 11024 11025 11026 11026 11027 11028 11028 11028 11029 11030 11030 11031 11031 11032 11032 11033 11033 11033 11033 11032 11032 11032 11033 11035 11036 11036 11037 11038 11038 11038 11038 11038 11037 11037 11037 11036 11036 11035 11034 11034 11034 11033 11034 11034 11034 11034 11034 11033 11033 11032 11032 11032 11031 11031 11030 11030 11030 11029 11029 11028 11027
10976 10981 10984 10987 10990 10991 10994 10996 10998 11000 11002 11004 11005 11007 11007 11008 11009 11011 11012 11014 11015 11016 11018 11020 11020 11021 11022 11023 11024 11025 11025 11025 11026 11026 11027 11028 11029 11029 11030 11030 11031 11031 11032 11031 11031 11031 11032 11033 11034 11035 11035 11036 11036 11036 11036 11036 11036 11036 11036 11036 11035 11035 11034 11033 11032 11032 11032 11033 11033 11032 11032 11032 11031 11031 11030 11030 11029 11029 11029 11028 11027 11027 11027 11026 11025
10970 10975 10979 10981 10984 10985 10987 10989 10992 10995 10997 10999 11000 11002 11003 11004 11005 11007 11008 11010 11011 11012 11014 11016 11016 11017 11018 11019 11021 11021 11021 11022 11023 11023 11024 11025 11026 11026 11027 11028 11028 11029 11029 11029 11029 11029 11030 11030 11031 11032 11033 11034 11034 11033 11034 11034 11034 11034 11034 11034 11033 11033 11033 11031 11030 11030 11031 11031 11031 11030 11030 11030 11029 11029 11028 11028 11027 11027 11027 11026 11025 11025 11025 11024 11023
10966 10970 10973 10976 10978 10979 10982 10984 10987 10990 10992 10994 10996 10997 10998 11000 11001 11003 11004 11006 11007 11008 11009 11011 11012 11013 11015 11016 11017 11017 11018 11019 11020 11021 11022 11022 11022 11022 11023 11024 11025 11025 11026 11026 11026 11027 11027 11028 11029 11030 11031 11032 11032 11031 11031 11031 11032 11032 11031 11031 11031 11031 11030 11028 11027 11028 11029 11029 11029 11028 11027 11027 11027 11026 11026 11026 11025 11024 11024 11024 11023 11022 11022 11022 11022
10961 10964 10967 10970 10972 10975 10977 10979 10982 10985 10987 10989 10991 10992 10993 10994 10996 10998 11000 11001 11003 11004 11005 11006 11008 11009 11011 11012 11012 11013 11014 11015 11016 11017 11018 11019 11019 11018 11019 11020 11021 11022 11023 11023 11023 11023 11024 11025 11025 11026 11028 11029 11029 11029 11028 11028 11029 11029 11029 11029 11028 11029 11028 11026 11025 11025 11025 11026 11026 11026 11025 11025 11025 11024 11024 11023 11022 11021 11021 11021 11021 11020 11020 11020 11020
10954 10957 10960 10963 10966 10969 10971 10974 10976 10979 10981 10983 10985 10987 10988 10989 10990 10992 10995 10997 10998 10999 10999 11000 11003 11005 11007 11007 11007 11008 11010 11011 11012 11013 11014 11014 11015 11015 11015 11015 11016 11017 11019 11020 11020 11020 11020 11021 11022 11023 11024 11025 11026 11026 11025 11025 11025 11026 11026 11026 11026 11026 11025 11024 11023 11022 11022 11022 11022 11023 11023 11023 11023 11022 11022 11021 11020 11019 11018 11017 11017 11017 11017 11017 11018
10947 10950 10952 10955 10957 10961 10964 10967 10970 10972 10975 10976 10978 10980 10982 10983 10984 10986 10989 10991 10992 10993 10993 10994 10997 10999 11002 11002 11002 11003 11005 11006 11006 11008 11009 11010 11011 11011 11011 11011 11011 11012 11014 11015 11016 11016 11016 11018 11018 11019 11020 11021 11022 11023 11023 11022 11022 11022 11022 11023 11023 11023 11023 11022 11021 11020 11019 11018 11019 11019 11019 11020 11020 11020 11020 11019 11018 11017 11015 11014 11014 11014 11014 11014 11014
10939 10942 10945 10947 10950 10953 10956 10959 10962 10965 10967 10969 10971 10973 10975 10976 10978 10980 10982 10985 10986 10987 10987 10989 10991 10993 10995 10996 10997 10999 11001 11001 11001 11001 11003 11004 11005 11006 11007 11007 11007 11007 11008 11010 11011 11012 11013 11014 11015 11015 11016 11017 11018 11019 11019 11019 11019 11018 11018 11018 11019 11019 11019 11019 11019 11018 11016 11015 11015 11015 11015 11016 11017 11017 11017 11016 11016 11014 11013 11011 11011 11011 11010 11010 11010
10931 10934 10937 10939 10942 10945 10948 10951 10954 10957 10959 10961 10963 10965 10967 10969 10971 10973 10976 10978 10980 10981 10982 10983 10985 10987 10988 10990 10992 10994 10996 10997 10996 10996 10997 10998 10999 11001 11002 11002 11002 11002 11003 11005 11006 11007 11008 11010 11010 11010 11011 11013 11013 11014 11015 11015 11015 11015 11014 11014 11014 11014 11015 11015 11015 11015 11014 11013 11012 11012 11012 11012 11012 11012 11012 11013 11012 11012 11011 11009 11008 11008 11007 11006 11006
10921 10924 10928 10931 10933 10936 10939 10942 10945 10948 10950 10953 10955 10957 10959 10961 10963 10966 10969 10971 10973 10974 10975 10977 10978 10980 10981 10983 10985 10987 10989 10991 10991 10991 10991 10992 10993 10994 10995 10996 10996 10997 10997 10998 10999 11000 11002 11004 11006 11006 11007 11008 11009 11009 11010 11011 11011 11011 11010 11010 11010 11010 11010 11010 11010 11011 11011 11011 11010 11009 11008 11008 11008 11008 11008 11008 11008 11008 11007 11007 11006 11005 11004 11003 11002
10912 10915 10918 10921 10924 10927 10930 10933 10936 10938 10941 10944 10946 10948 10950 10953 10955 10958 10961 10963 10965 10967 10968 10970 10971 10973 10974 10976 10978 10980 10982 10984 10985 10985 10986 10986 10986 10988 10988 10989 10990 10991 10991 10991 10991 10992 10994 10996 10999 11001 11002 11003 11004 11004 11005 11005 11006 11006 11007 11007 11006 11006 11005 11005 11005 11005 11005 11005 11006 11005 11005 11005 11004 11004 11004 11004 11004 11004 11004 11003 11003 11002 11001 10999 10998
10902 10905 10908 10910 10913 10917 10920 10924 10926 10929 10932 10935 10937 10939 10941 10943 10946 10950 10953 10955 10957 10959 10960 10962 10964 10965 10967 10969 10971 10973 10975 10976 10977 10978 10979 10979 10980 10980 10981 10982 10982 10983 10984 10984 10984 10985 10986 10988 10990 10992 10994 10996 10997 10998 10999 11000 11000 11001 11002 11002 11002 11001 11000 10999 10999 10999 10999 10999 10999 11000 11000 11000 11000 11000 11000 11000 10999 10999 11000 10999 10999 10999 10998 10996 10994
10891 10894 10897 10900 10903 10906 10909 10913 10916 10919 10922 10925 10927 10929 10931 10933 10937 10940 10943 10946 10949 10950 10952 10954 10956 10958 10960 10961 10963 10965 10967 10968 10970 10971 10972 10972 10973 10973 10973 10974 10974 10975 10976 10976 10976 10978 10979 10981 10982 10984 10985 10987 10988 10990 10991 10993 10994 10995 10995 10996 10996 10996 10995 10994 10993 10993 10993 10992 10993 10993 10994 10994 10994 10995 10995 10995 10995 10995 10995 10995 10994 10994 10994 10992 10990
10880 10883 10887 10889 10892 10895 10898 10901 10905 10908 10911 10914 10916 10918 10920 10923 10926 10930 10933 10936 10940 10942 10944 10945 10947 10950 10952 10953 10955 10956 10958 10959 10960 10962 10963 10963 10964 10964 10965 10965 10965 10966 10967 10967 10968 10970 10971 10972 10974 10975 10977 10978 10979 10981 10982 10984 10985 10986 10987 10988 10989 10990 10990 10989 10988 10987 10987 10986 10986 10987 10987 10988 10988 10988 10988 10989 10989 10990 10990 10990 10990 10989 10989 10988 10986
10868 10872 10876 10879 10882 10885 10887 10890 10893 10896 10900 10903 10905 10907 10909 10912 10915 10919 10922 10925 10929 10932 10934 10936 10938 10941 10943 10944 10946 10947 10948 10949 10950 10951 10953 10954 10954 10955 10956 10956 10957 10957 10957 10958 10959 10961 10962 10963 10965 10966 10968 10969 10970 10972 10973 10974 10976 10977 10978 10979 10980 10981 10982 10982 10981 10981 10980 10980 10980 10980 10980 10980 10981 10981 10981 10981 10982 10983 10983 10984 10984 10984 10984 10983 10981
10857 10860 10864 10868 10871 10874 10876 10879 10882 10884 10888 10891 10893 10896 10898 10900 10903 10907 10911 10915 10918 10921 10923 10926 10928 10930 10933 10934 10936 10937 10938 10939 10940 10941 10942 10943 10944 10945 10946 10947 10947 10948 10948 10948 10949 10951 10952 10954 10955 10957 10958 10960 10961 10962 10964 10965 10966 10967 10968 10969 10970 10971 10973 10974 10974 10974 10973 10973 10972 10972 10972 10973 10973 10973 10973 10974 10974 10974 10975 10975 10976 10977 10977 10977 10976
10843 10847 10852 10855 10859 10862 10865 10867 10870 10873 10876 10879 10882 10884 10886 10889 10892 10896 10900 10903 10907 10909 10912 10914 10916 10919 10921 10923 10925 10926 10928 10929 10929 10930 10931 10932 10932 10933 10935 10936 10937 10937 10938 10938 10939 10940 10941 10943 10944 10946 10948 10949 10951 10952 10953 10954 10956 10957 10958 10959 10960 10961 10962 10963 10964 10965 10965 10964 10964 10964 10964 10964 10964 10964 10965 10965 10965 10965 10966 10967 10967 10968 10968 10969 10969
10829 10833 10838 10842 10845 10849 10852 10855 10858 10861 10864 10867 10870 10872 10875 10877 10880 10884 10888 10891 10895 10898 10900 10902 10904 10907 10909 10911 10913 10915 10916 10917 10918 10919 10920 10920 10921 10922 10923 10924 10925 10926 10926 10927 10928 10930 10930 10931 10933 10934 10936 10938 10939 10941 10942 10943 10944 10946 10947 10949 10950 10951 10952 10953 10954 10955 10955 10955 10955 10955 10955 10954 10954 10955 10956 10956 10956 10956 10957 10958 10959 10959 10959 10960 10960
10815 10819 10823 10827 10830 10834 10838 10841 10845 10848 10851 10854 10857 10860 10863 10865 10868 10871 10874 10878 10882 10885 10887 10890 10892 10894 10896 10898 10900 10901 10904 10905 10907 10908 10909 10909 10910 10910 10911 10912 10912 10913 10914 10915 10917 10918 10918 10920 10921 10922 10923 10925 10927 10928 10930 10931 10932 10934 10935 10937 10938 10940 10941 10942 10943 10944 10945 10946 10945 10945 10945 10945 10945 10945 10945 10946 10946 10946 10947 10948 10949 10950 10950 10950 10951
10799 10803 10807 10811 10815 10818 10822 10825 10829 10833 10836 10840 10843 10846 10849 10851 10854 10856 10859 10863 10867 10870 10873 10876 10878 10881 10883 10885 10886 10888 10890 10892 10894 10896 10898 10898 10899 10899 10899 10900 10900 10901 10902 10903 10904 10905 10905 10907 10908 10909 10910 10911 10913 10915 10916 10918 10919 10921 10922 10923 10925 10927 10929 10931 10932 10933 10935 10935 10936 10936 10936 10936 10935 10935 10935 10935 10936 10936 10936 10937 10938 10939 10940 10941 10941
10783 10787 10791 10795 10799 10802 10806 10810 10814 10817 10821 10824 10827 10831 10834 10837 10840 10842 10845 10848 10852 10855 10858 10861 10863 10866 10869 10871 10872 10874 10876 10877 10880 10882 10884 10886 10887 10888 10888 10888 10888 10889 10890 10891 10891 10892 10893 10893 10894 10895 10896 10897 10899 10900 10902 10903 10905 10907 10908 10910 10911 10913 10915 10917 10919 10921 10923 10924 10925 10925 10926 10926 10926 10926 10925 10925 10926 10926 10927 10927 10927 10928 10929 10929 10931
10767 10771 10775 10779 10783 10786 10790 10794 10798 10802 10805 10809 10812 10815 10819 10822 10825 10828 10830 10833 10836 10839 10843 10845 10848 10851 10854 10856 10857 10859 10861 10863 10865 10866 10869 10871 10873 10874 10875 10875 10875 10876 10876 10877 10878 10879 10880 10881 10881 10882 10883 10884 10885 10886 10887 10888 10890 10892 10893 10895 10896 10898 10900 10903 10905 10907 10909 10911 10912 10913 10914 10915 10915 10915 10915 10915 10915 10915 10916 10916 10916 10917 10917 10918 10919
10751 10755 10759 10763 10767 10771 10775 10779 10782 10786 10789 10793 10797 10800 10803 10806 10809 10812 10815 10818 10820 10823 10826 10830 10833 10836 10838 10841 10842 10844 10845 10847 10848 10850 10853 10855 10857 10859 10860 10861 10862 10862 10862 10863 10864 10865 10866 10867 10867 10868 10869 10870 10871 10872 10873 10874 10876 10877 10878 10880 10881 10883 10885 10887 10889 10891 10893 10896 10898 10900 10901 10902 10903 10903 10904 10904 10903 10904 10904 10905 10905 10905 10906 10906 10907
10734 10738 10742 10746 10751 10755 10759 10763 10766 10770 10773 10777 10781 10785 10788 10791 10794 10796 10799 10801 10804 10806 10809 10813 10817 10820 10823 10825 10827 10829 10830 10831 10832 10834 10836 10838 10840 10842 10844 10845 10847 10847 10848 10849 10849 10850 10851 10852 10853 10854 10854 10855 10856 10858 10859 10860 10861 10862 10863 10865 10866 10868 10870 10871 10873 10875 10877 10879 10881 10883 10885 10887 10888 10889 10890 10891 10891 10892 10892 10893 10893 10893 10893 10894 10896
10717 10721 10725 10730 10734 10739 10743 10747 10751 10754 10758 10761 10765 10768 10771 10774 10777 10780 10783 10785 10787 10789 10792 10795 10799 10803 10807 10810 10812 10813 10814 10815 10816 10818 10819 10821 10823 10825 10826 10828 10830 10831 10832 10833 10834 10835 10836 10837 10838 10838 10839 10840 10841 10843 10844 10846 10847 10848 10848 10849 10850 10852 10853 10855 10857 10859 10861 10863 10864 10866 10868 10870 10872 10873 10875 10876 10877 10878 10879 10879 10880 10881 10880 10881 10882
10702 10706 10710 10714 10718 10722 10727 10731 10735 10738 10742 10745 10748 10751 10754 10757 10760 10763 10766 10768 10770 10772 10774 10777 10781 10785 10790 10794 10797 10798 10798 10799 10800 10801 10802 10804 10806 10807 10809 10810 10812 10814 10815 10817 10818 10819 10820 10821 10822 10822 10823 10824 10825 10827 10829 10830 10832 10833 10834 10835 10836 10836 10837 10838 10840 10842 10844 10846 10848 10850 10851 10853 10854 10856 10858 10860 10861 10862 10864 10865 10866 10867 10868 10868 10868
10686 10691 10695 10699 10703 10707 10711 10715 10718 10722 10725 10728 10731 10734 10736 10739 10742 10745 10748 10750 10752 10754 10757 10760 10763 10767 10771 10775 10778 10780 10782 10782 10783 10784 10786 10788 10789 10790 10791 10792 10794 10796 10797 10799 10800 10802 10803 10804 10805 10806 10806 10807 10809 10810 10812 10813 10815 10816 10818 10819 10820 10821 10822 10823 10824 10826 10827 10829 10831 10833 10834 10836 10837 10839 10841 10843 10844 10846 10848 10849 10850 10851 10854 10855 10855
10669 10674 10678 10682 10686 10690 10694 10698 10701 10704 10708 10710 10713 10716 10719 10722 10725 10728 10730 10732 10735 10737 10740 10743 10746 10750 10753 10755 10757 10760 10763 10765 10767 10768 10769 10771 10772 10773 10775 10776 10777 10778 10779 10780 10782 10784 10785 10786 10787 10788 10789 10790 10792 10793 10795 10796 10797 10799 10800 10801 10803 10804 10805 10806 10808 10810 10812 10814 10816 10817 10818 10819 10821 10823 10824 10825 10827 10829 10831 10833 10834 10835 10837 10839 10840
10652 10656 10661 10665 10669 10673 10677 10681 10684 10687 10690 10693 10696 10698 10701 10704 10707 10710 10712 10715 10717 10719 10722 10725 10728 10731 10733 10735 10737 10739 10743 10746 10749 10751 10752 10753 10755 10756 10757 10759 10760 10761 10762 10762 10764 10765 10766 10768 10769 10770 10771 10772 10773 10775 10776 10778 10780 10781 10783 10784 10785 10786 10787 10789 10791 10793 10795 10797 10799 10801 10802 10804 10805 10807 10808 10809 10810 10812 10814 10816 10817 10818 10820 10822 10824
10635 10640 10645 10649 10652 10656 10659 10662 10666 10669 10672 10675 10678 10680 10683 10687 10690 10693 10695 10697 10699 10701 10704 10707 10709 10712 10714 10716 10718 10720 10722 10726 10729 10732 10734 10735 10737 10738 10739 10741 10743 10745 10745 10745 10746 10747 10748 10749 10751 10751 10752 10753 10754 10756 10757 10759 10760 10762 10764 10765 10767 10768 10770 10771 10773 10775 10777 10779 10781 10783 10785 10787 10788 10790 10792 10792 10793 10795 10797 10799 10800 10801 10803 10805 10807
10618 10622 10627 10631 10635 10638 10641 10644 10648 10650 10653 10656 10659 10662 10665 10669 10673 10675 10677 10679 10681 10683 10685 10688 10691 10693 10695 10697 10699 10701 10703 10705 10708 10711 10713 10715 10717 10719 10721 10723 10724 10725 10726 10727 10728 10729 10730 10731 10732 10733 10734 10735 10736 10737 10738 10739 10740 10742 10744 10745 10748 10749 10751 10753 10755 10758 10760 10762 10763 10764 10766 10768 10770 10772 10774 10775 10776 10778 10781 10782 10783 10785 10786 10788 10790
10601 10604 10608 10612 10617 10621 10624 10627 10629 10632 10635 10637 10640 10643 10646 10650 10653 10656 10658 10660 10663 10665 10667 10669 10673 10675 10676 10678 10680 10682 10683 10685 10687 10689 10692 10694 10696 10699 10701 10703 10704 10705 10706 10707 10709 10710 10711 10712 10713 10715 10716 10717 10717 10718 10719 10719 10720 10721 10723 10725 10727 10729 10731 10733 10735 10738 10740 10743 10745 10746 10748 10749 10751 10753 10754 10756 10758 10760 10762 10764 10765 10767 10770 10771 10773
10585 10587 10590 10594 10597 10601 10605 10608 10611 10614 10617 10619 10621 10624 10627 10630 10633 10636 10638 10640 10643 10646 10648 10650 10653 10655 10657 10658 10660 10662 10664 10665 10667 10668 10670 10672 10675 10678 10680 10682 10683 10683 10685 10686 10687 10688 10690 10692 10693 10694 10695 10697 10698 10699 10699 10700 10701 10701 10702 10703 10705 10707 10710 10712 10715 10717 10719 10721 10724 10727 10729 10731 10733 10733 10734 10736 10737 10739 10742 10744 10746 10748 10751 10753 10756
10567 10570 10572 10574 10577 10581 10585 10588 10592 10595 10598 10600 10602 10605 10608 10611 10614 10616 10618 10620 10623 10626 10628 10630 10632 10635 10637 10639 10641 10642 10644 10645 10647 10648 10650 10651 10654 10656 10659 10661 10662 10663 10664 10665 10666 10668 10669 10670 10671 10672 10673 10674 10676 10677 10678 10680 10680 10681 10681 10682 10683 10684 10686 10689 10692 10696 10698 10700 10703 10706 10708 10711 10713 10714 10715 10716 10717 10719 10721 10724 10726 10728 10731 10733 10736
10549 10552 10554 10557 10560 10563 10566 10570 10573 10576 10579 10581 10584 10586 10589 10592 10595 10597 10599 10601 10603 10606 10608 10610 10612 10614 10617 10619 10621 10623 10625 10626 10627 10628 10630 10631 10633 10635 10637 10639 10641 10642 10643 10644 10645 10646 10647 10648 10649 10650 10651 10652 10653 10654 10656 10657 10658 10659 10659 10660 10661 10662 10663 10665 10668 10672 10675 10678 10682 10685 10687 10689 10691 10692 10693 10695 10696 10699 10701 10704 10705 10708 10710 10713 10716
10533 10536 10539 10542 10544 10547 10550 10553 10556 10558 10561 10563 10565 10568 10570 10573 10575 10578 10580 10583 10585 10587 10589 10591 10593 10594 10597 10598 10600 10603 10604 10606 10607 10608 10610 10611 10612 10614 10615 10617 10619 10620 10622 10623 10623 10624 10625 10626 10627 10628 10629 10630 10631 10632 10633 10634 10635 10635 10636 10637 10638 10639 10641 10643 10645 10648 10650 10654 10659 10662 10665 10667 10669 10670 10671 10672 10674 10677 10680 10682 10684 10686 10688 10691 10695
10518 10522 10525 10527 10529 10532 10534 10536 10539 10541 10543 10545 10547 10549 10552 10554 10556 10559 10561 10563 10566 10568 10570 10572 10574 10576 10577 10579 10580 10582 10584 10585 10587 10588 10589 10590 10591 10593 10594 10595 10597 10598 10599 10600 10601 10602 10603 10604 10606 10606 10607 10608 10609 10609 10609 10610 10610 10611 10612 10613 10615 10617 10618 10620 10622 10624 10626 10630 10634 10637 10640 10643 10646 10648 10649 10651 10652 10654 10657 10659 10662 10664 10666 10669 10672
10503 10506 10509 10511 10513 10515 10517 10519 10521 10523 10525 10527 10529 10531 10533 10536 10538 10540 10542 10544 10547 10549 10551 10553 10555 10557 10559 10560 10562 10563 10564 10565 10566 10567 10568 10570 10570 10571 10573 10573 10574 10575 10576 10577 10578 10579 10581 10582 10583 10584 10585 10585 10585 10585 10586 10586 10586 10587 10588 10590 10592 10594 10595 10596 10598 10600 10602 10606 10610 10613 10616 10619 10622 10624 10626 10627 10629 10630 10633 10635 10638 10641 10644 10646 10649